#timestamp,LO_Frequency,Hit,StdDev 
1512817215.8,286046997.7,N
1512817235.6,286046998.9,N
1512817255.5,286046995.0,N
1512817275.3,286046993.4,N
1512817295.1,286046994.3,N
1512817315.9,286046995.7,N
1512817335.7,286046996.0,N
1512817355.5,286046997.9,N
1512817375.4,286046997.8,N
1512817395.2,286046999.2,N
1512817415.1,286047002.8,N
1512817416.0,286047002.8,N
1512817435.8,286047001.7,N
1512817455.6,286047001.7,N
1512817475.5,286047000.7,N
1512817495.3,286046998.1,N
1512817515.2,286047000.0,N
1512817535.9,286046999.2,N
1512817555.7,286047001.1,N
1512817575.6,286047000.4,N
1512817595.4,286047002.5,N
1512817615.3,286047002.5,N
1512817635.1,286047001.6,N
1512817636.0,286047001.6,N
1512817655.8,286047002.4,N
1512817675.7,286047000.7,N
1512817695.5,286046998.9,N
1512817715.3,286047002.8,N
1512817735.2,286047001.3,N
1512817755.0,286047001.7,N
1512817755.9,286047001.7,N
1512817775.8,286047002.5,N
1512817795.6,286047002.4,N
1512817815.4,286047002.2,N
1512817835.3,286047002.2,N
1512817855.1,286047004.0,N
1512817875.9,286047004.3,N
1512817895.7,286047003.1,N
1512817915.5,286047005.0,Y
1512817935.4,286047004.7,P
1512817955.2,286047005.3,P
1512817975.0,286047003.3,N
1512817976.0,286047003.3,N
1512817995.8,286047003.5,N
1512818015.6,286047003.2,N
1512818035.5,286046999.8,N
1512818055.3,286046998.2,N
1512818075.1,286046999.0,N
1512818095.9,286046997.3,N
1512818115.7,286046994.9,N
1512818135.6,286046996.1,N
1512818155.4,286046996.3,N
1512818175.2,286046992.9,N
1512818195.1,286046993.9,N
1512818196.0,286046993.9,N
1512818215.8,286046995.2,N
1512818235.6,286046997.9,N
1512818255.5,286046997.8,N
1512818275.3,286046997.6,N
1512818295.2,286046998.0,N
1512818315.9,286046999.3,N
1512818335.7,286046997.9,N
1512818355.6,286046993.8,N
1512818375.4,286046994.0,N
1512818395.3,286046998.9,N
1512818415.1,286046999.4,N
1512818416.0,286046999.4,N
1512818435.8,286046998.2,N
1512818455.7,286047000.4,N
1512818475.5,286046998.6,N
1512818495.3,286046997.6,N
1512818515.2,286046998.0,N
1512818535.0,286046999.2,N
1512818535.9,286046999.2,N
1512818555.8,286047000.9,N
1512818575.6,286047000.5,N
1512818595.4,286047000.0,N
1512818615.3,286047000.6,N
1512818635.1,286047000.7,N
1512818655.9,286046999.8,N
1512818675.7,286046998.9,N
1512818695.5,286047001.0,N
1512818715.4,286046998.9,N
1512818735.2,286047000.7,N
1512818755.0,286047002.7,N
1512818755.9,286047002.7,N
1512818775.8,286047002.1,N
1512818795.6,286047001.7,N
1512818815.5,286047002.8,N
1512818835.3,286047001.1,N
1512818855.1,286047000.4,N
1512818875.9,286047000.4,N
1512818895.7,286047000.6,N
1512818915.5,286047000.9,N
1512818935.4,286047002.3,N
1512818955.2,286047001.3,N
1512818975.1,286047002.5,N
1512818976.0,286047002.5,N
1512818995.8,286047002.4,N
1512819015.6,286047003.5,N
1512819035.5,286047005.9,Y
1512819055.3,286047000.8,P
1512819075.2,286047000.5,P
1512819095.9,286047002.8,P
1512819115.7,286046996.5,Y
1512819135.6,286046993.4,P
1512819155.4,286046993.3,N
1512819175.3,286046997.5,N
1512819195.1,286046997.9,N
1512819196.0,286046997.9,N
1512819215.8,286046996.9,N
1512819235.7,286046999.1,N
1512819255.5,286046996.8,N
1512819275.3,286046997.7,N
1512819295.2,286046995.4,N
1512819315.0,286046996.6,N
1512819315.9,286046996.6,N
1512819335.8,286046999.1,N
1512819355.6,286046995.7,N
1512819375.4,286046995.3,N
1512819395.3,286046993.4,Y
1512819415.1,286046998.9,P
1512819435.9,286046999.9,N
1512819455.7,286046998.8,N
1512819475.5,286047000.5,N
1512819495.4,286047002.1,N
1512819515.2,286047000.1,N
1512819535.1,286047001.1,N
1512819536.0,286047001.1,N
1512819555.8,286046999.5,N
1512819575.6,286047001.2,N
1512819595.5,286046998.2,N
1512819615.3,286046999.4,N
1512819635.1,286046998.4,N
1512819655.9,286046998.3,N
1512819675.7,286046998.2,N
1512819695.6,286047000.1,N
1512819715.4,286047011.9,Y
1512819735.2,286046997.0,P
1512819755.1,286046996.5,N
1512819756.0,286046996.5,N
1512819775.8,286046996.5,N
1512819795.7,286047000.8,N
1512819815.5,286047000.2,N
1512819835.3,286047001.4,N
1512819855.2,286047001.6,N
1512819875.0,286047001.6,N
1512819875.9,286047001.6,N
1512819895.7,286047000.4,N
1512819915.6,286047002.1,N
1512819935.4,286047001.6,N
1512819955.3,286047000.4,N
1512819975.1,286047002.6,N
1512819995.8,286047002.8,N
1512820015.7,286047000.1,N
1512820035.5,286047002.1,N
1512820055.4,286047001.7,N
1512820075.2,286047001.6,N
1512820095.0,286047002.1,N
1512820095.9,286047002.1,N
1512820115.8,286047001.5,N
1512820165.6,286047002.5,E
1512820175.6,286047001.0,N
1512820195.4,286046995.4,P
1512820215.2,286046994.1,N
1512820235.1,286046997.6,N
1512820236.0,286046997.6,N
1512820255.8,286046995.5,N
1512820275.7,286046995.2,N
1512820295.5,286046997.0,N
1512820315.3,286046998.3,N
1512820335.2,286046993.3,Y
1512820355.0,286046996.1,P
1512820355.9,286046996.1,P
1512820375.7,286046997.4,P
1512820395.6,286046998.3,Y
1512820415.4,286047001.5,P
1512820435.3,286047001.8,N
1512820455.1,286047004.1,N
1512820475.8,286047005.1,N
1512820495.7,286047006.7,N
1512820515.5,286047007.6,N
1512820535.4,286047004.2,N
1512820555.2,286047003.6,N
1512820575.0,286047007.4,N
1512820575.9,286047007.4,N
1512820595.8,286047006.8,N
1512820615.6,286047007.5,N
1512820635.5,286047008.8,N
1512820655.3,286047009.2,N
1512820675.1,286047006.9,N
1512820695.9,286047005.0,N
1512820715.7,286047007.0,N
1512820735.5,286047004.9,N
1512820755.4,286047007.0,N
1512820775.2,286047006.1,N
1512820795.1,286047007.0,N
1512820796.0,286047007.0,N
